Weather Roundup
Issued by NWS Springfield, MO

Home | Current Version | Previous Version | Text Only | Print | Product List | Glossary On
Versions: 1 2 3 4 5 6 7 8 9 10 11 12 13 14 15 16 17 18 19 20 21 22 23 24 25 26 27 28 29 30 31 32 33 34 35 36 37 38 39 40 41 42 43 44 45 46 47 48 49 50
000
NZUS99 KSGF 240207
HRRSGF

HOURLY WEATHER
NATIONAL WEATHER SERVICE SPRINGFIELD MO
900 PM CDT WED APR 23 2014

......SGF CWA......

CITY           SKY/WX    TMP DP  RH WIND       PRES   REMARKS
SPRINGFIELD    PTCLDY    69  41  36 SE17      29.82S
JOPLIN         PTCLDY    72  44  36 SE8       29.78R
WEST PLAINS    CLEAR     64  36  35 SE9       29.92F
ROLLA          CLEAR     56  40  55 E9        29.88F
OSAGE BEACH    CLEAR     68  34  28 SE6       29.87R
BRANSON        MOCLDY    68  41  37 SE14      29.87S

......SURROUNDING SGF CWA......

CITY           SKY/WX    TMP DP  RH WIND       PRES   REMARKS
CHANUTE        CLOUDY    74  52  46 SE15      29.71R
PARSONS        CLOUDY    74  53  48 SE8       29.73R
COFFEYVILLE    CLOUDY    73  56  54 S12       29.72R
EMPORIA        CLOUDY    74  52  46 S26G38    29.61S
GROVE OK       PTCLDY    72  54  53 SE8       29.79R
ROGERS AR      PTCLDY    70  48  45 SE9       29.84R
SILOAM SPRINGS PTCLDY    70  48  46 SE14      29.83R
HARRISON AR    PTCLDY    66  43  43 SE12      29.87S
NEAR YELLVILLE CLEAR     66  43  42 SE7       29.89R

......KANSAS AND MISSOURI......

CITY           SKY/WX    TMP DP  RH WIND       PRES   REMARKS
KANSAS CTY INT PTCLDY    69  41  36 SE22G32   29.66F
DOWNTOWN KC    CLEAR     72  42  34 SE16G22   29.67F
COLUMBIA       PTCLDY    59  38  45 E15       29.87F
SEDALIA        CLEAR     63  40  42 SE16      29.81S
ST JOSEPH      CLEAR     67  41  38 SE20      29.65F
ST LOUIS       CLOUDY    61  32  33 E15       29.97F
SPIRIT OF STL  PTCLDY    60  34  37 E7        29.94F
KIRKSVILLE     MOCLDY    55  35  47 SE14      29.85S
WICHITA        CLOUDY    78  48  34 S28G38    29.59R
TOPEKA         PTCLDY    76  45  33 S20G32    29.61F
OLATHE         PTCLDY    70  43  37 SE21G30   29.68F

......TENNESSEE......

CITY           SKY/WX    TMP DP  RH WIND       PRES   REMARKS
MEMPHIS        PTCLDY    68  37  32 E5        29.94R
NASHVILLE      CLEAR     60  33  36 N6        30.02R

......ARKANSAS.......

CITY           SKY/WX    TMP DP  RH WIND       PRES   REMARKS
FAYETTEVILLE   PTCLDY    70  49  47 SE10      29.83S
FT SMITH       MOCLDY    75  54  47 SE5       29.81R
LITTLE ROCK    MOCLDY    65  46  50 E8        29.89S

......OKLAHOMA.......

CITY           SKY/WX    TMP DP  RH WIND       PRES   REMARKS
TULSA          MOCLDY    77  56  48 S12       29.73R
PONCA CITY     CLOUDY    79  51  37 S9G22     29.73R
MCALESTER      MOCLDY    75  55  49 SE6       29.78R
OKLAHOMA CITY  LGT RAIN  76  57  51 SE21G28   29.72R

......IOWA............

CITY           SKY/WX    TMP DP  RH WIND       PRES   REMARKS
DES MOINES     LGT RAIN  50  39  66 SE17G28   29.78F
QUAD CITIES    CLOUDY    48  40  73 E10       29.97F

......ILLINOIS........

CITY           SKY/WX    TMP DP  RH WIND       PRES   REMARKS
QUINCY         MOCLDY    56  31  38 SE15      29.91F
CHICAGO        CLOUDY    42  20  41 E8        30.09F



USA.gov is the U.S. government's official web portal to all federal, state and local government web resources and services.